Flag for Germany Weather past 2 weeks in Heidenheim an der Brenz, Baden-Württemberg, Germany

Now
59 °F

Low clouds.


Feels Like: 58 °F
Forecast: 59 / 71 °F
Wind: 9 mph from North

Location: Stoetten

Current Time: Jul 30, 2014 at 11:43:40 PM

Latest Report: Jul 30, 2014 at 11:00 PM


Visibility: 2 mi

Pressure: 29.92 "Hg

Humidity: 99%

Dew point: 59 °F

Location of Heidenheim an der BrenzLocation

Historic Weather in Heidenheim an der Brenz — Graph

°F

Heidenheim an der Brenz temperature yesterday

Maximum temperature yesterday: 63 °F (at 4:00 PM)
Minimum temperature yesterday: 57 °F (at 4:00 AM)
Average temperature yesterday: 59 °F

Past Weeks' High & Low Weather Summary

 TemperatureHumidityPressure
High85 °F (Jul 19, 5:00 PM)100% (Jul 21, 12:00 AM)30.19 "Hg (Jul 21, 12:00 AM)
Low57 °F (Jul 29, 4:00 AM)31% (Jul 18, 4:00 PM)29.72 "Hg (Jul 28, 6:00 PM)
Average66 °F74%29.92 "Hg
* Reported Jul 15 10:00 PM — Jul 30 10:00 PM, Heidenheim an der Brenz, Weather by CustomWeather, © 2014

Note: Actual official high and low records may vary slightly from our data, if they occured in-between our weather recording intervals... More about our weather records

Advertising

Heidenheim an der Brenz weather history for previous 24 hours

 ConditionsComfort  
Time TempWeatherWind HumidityBarometerVisibility
10:00 PM
Jul 30
60 °FLow clouds.7 mph100%29.89 "Hg1 mi
9:00 PM61 °FLow clouds.7 mph100%29.87 "Hg2 mi
8:00 PM62 °FLow clouds.7 mph99%29.85 "Hg2 mi
7:00 PM62 °FLow clouds.8 mph99%29.82 "Hg2 mi
6:00 PM62 °FLow clouds.7 mph99%29.82 "Hg2 mi
5:00 PM65 °FLow clouds.6 mph98%29.80 "Hg7 mi
4:00 PM65 °FLight rain. Low clouds.5 mph99%29.80 "Hg2 mi
3:00 PM62 °FLight rain. Low clouds.5 mph100%29.81 "Hg1 mi
2:00 PM62 °FLight rain. Dense fog.5 mph100%29.80 "Hg0 mi
1:00 PM61 °FLight rain. Dense fog.5 mph100%29.80 "Hg0 mi
12:00 PM61 °FFog.5 mph100%29.80 "Hg0 mi
11:00 AM60 °FRain. Dense fog.3 mph100%29.79 "Hg0 mi
10:00 AM60 °FDrizzle. Dense fog.5 mph100%29.78 "Hg0 mi
9:00 AM59 °FFog.5 mph100%29.78 "Hg0 mi
8:00 AM58 °FRain. Dense fog.5 mph100%29.78 "Hg0 mi
7:00 AM58 °FDrizzle. Dense fog.5 mph100%29.76 "Hg0 mi
6:00 AM58 °FFog.3 mph100%29.76 "Hg0 mi
5:00 AM59 °FDrizzle. Low clouds.3 mph100%29.76 "Hg0 mi
4:00 AM59 °FLow clouds.3 mph100%29.76 "Hg0 mi
3:00 AM59 °FLow clouds.3 mph100%29.78 "Hg0 mi
2:00 AM59 °FDrizzle. Low clouds.5 mph100%29.78 "Hg0 mi
1:00 AM59 °FLow clouds.5 mph100%29.77 "Hg0 mi
12:00 AM60 °FLight rain. Low clouds.6 mph100%29.78 "Hg0 mi
11:00 PM
Jul 29
60 °FDrizzle. Low clouds.6 mph100%29.78 "Hg0 mi
Weather by CustomWeather, © 2014

See weather overviewHow to use our weather pages